Aérodrome :
LOGIN :

S'inscrire | Disclaimer

   EN    FR    IT 

 










Légende :    VFR   VFR Marginal   IFR   IFR Intensif   IFR Très Intensif
Visi : 
Plafond : 
>= 8 km
>= 3000ft
5 à 8 km
1000 à 3000 ft
1500m à 5 km
500 à 1000 ft
800 à 1500m
200 à 500 ft
< 800m
< 200 ft
Symboles :   Orages  Brouillard  Fortes neiges  Fortes précipitations  Vent > 20 kt
SIGMETs :   Divers  Orages  Givrage  Turbulence  Onde Orograph.  Cendres Volcan.






- Altitude de l'aérodrome : 13 ft
- Code IATA : OST


EBOS - Oostend bruges Int.

DERNIER METAR :
  • 161020Z 02013KT 350V050 9999 FEW029 08/02 Q1030 NOSIG

METARs EXPIRÉS :
  • 160950Z 05012KT 9999 FEW025 08/02 Q1030 NOSIG
  • 160920Z 04011KT 360V080 9999 FEW025 08/02 Q1031 NOSIG
  • 160850Z 04013KT 9999 FEW025 08/02 Q1030 NOSIG
  • 160820Z 05010KT CAVOK 07/01 Q1030 NOSIG
  • 160750Z 05009KT CAVOK 07/M01 Q1030 NOSIG

TAF TAF EBOS
Valide du 16 à 06h jusqu'au 17 à 12h UTC


160510Z 1606/1712 05010KT 9999 FEW040



MET'MAP, la Météo Aéronautique d'un coup d'oeil ! - Copyright ORBIFLY Décembre 2007 - Disclaimer

ORBIFLY MET'MAP TEAM :

Programmation & Développement : Alexandra Zaïnal
Sur une idée originale de : Baudouin d'Aumeries
Assistance à la programmation : Marc-Olivier Méhu
Soutien technique & logistique : Manuel Goepfert

Contact : metmap@orbifly.com




SOURCES & CREDITS :

   NOAA